Location: Unspecified
(0.0000°N, 0.0000°E)
Time: 05:52:21
(UTC+00:00)

Tiros 1 despin weight - Pass Details

Date: 10 October 2020
Orbit: 594 x 641 km, 48.2° (Epoch: 28 October)

Event Time Altitude Azimuth Distance (km) Brightness Sun altitude
Rises 17:20:26 0° 281° (WNW) 2,915 ? 6.5°
Reaches altitude 10° 17:24:28 10° 247° (WSW) 2,019 ? 5.5°
Maximum altitude 17:25:53 11° 229° (SW) 1,939 ? 5.2°
Drops below altitude 10° 17:27:19 10° 211° (SSW) 2,025 ? 4.8°
Sets 17:31:24 0° 176° (S) 2,939 ? 3.8°
